Location: Newark
(13.6797°N, 8.5297°E)
Time: 01:09:11
(UTC+00:00)

A-11 Canister half - Pass Details

Date: 20 January 2020
Orbit: 1517 x 1683 km, 47.2° (Epoch: 19 February)

Event Time Altitude Azimuth Distance (km) Brightness Sun altitude
Rises 09:01:54 0° 310° (NW) 4,702 11.1 39.0°
Reaches altitude 10° 09:04:59 10° 306° (NW) 3,737 10.7 39.6°
Maximum altitude 09:14:09 56° 231° (SW) 1,851 10.0 41.3°
Drops below altitude 10° 09:23:41 10° 156° (SSE) 3,863 12.1 42.9°
Sets 09:26:57 0° 151° (SSE) 4,870 12.4 43.5°
